• In Hungary
  • List of Countries
  • For 7 days
  • Water Temperature
  • Satellite Maps
  • Weather Map
  • News
  • Weather Widgets
  • user-avatar
    Login

    Hourly Weather Boskovice

    Today, 22 September, Saturday

    Time Temperature Precipitation Wind Pressure Humidity
    00:00 +15°C° 0.5 mm 4 mps 721 mmHg 84%
    01:00 +15°C° 0 mm 5 mps 722 mmHg 87%
    02:00 +14°C° 1.4 mm 5 mps 722 mmHg 86%
    03:00 +13°C° 1.4 mm 4 mps 723 mmHg 85%
    04:00 +12°C° 1.4 mm 4 mps 724 mmHg 84%
    05:00 +11°C° 0.1 mm 4 mps 724 mmHg 83%
    06:00 +11°C° 0.1 mm 4 mps 725 mmHg 82%
    07:00 +11°C° 0 mm 4 mps 725 mmHg 79%
    08:00 +12°C° 0 mm 4 mps 725 mmHg 72%
    09:00 +13°C° 0 mm 4 mps 725 mmHg 66%
    10:00 +14°C° 0 mm 5 mps 725 mmHg 59%
    11:00 +14°C° 0 mm 5 mps 725 mmHg 55%
    12:00 +15°C° 0 mm 5 mps 725 mmHg 52%
    13:00 +16°C° 0 mm 5 mps 725 mmHg 48%
    14:00 +17°C° 0 mm 4 mps 725 mmHg 49%
    15:00 +17°C° 0 mm 4 mps 724 mmHg 49%
    16:00 +16°C° 0 mm 3 mps 724 mmHg 50%
    17:00 +16°C° 0 mm 3 mps 724 mmHg 53%
    18:00 +15°C° 0 mm 2 mps 724 mmHg 56%
    19:00 +14°C° 0 mm 1 mps 724 mmHg 58%
    20:00 +14°C° 0.1 mm 2 mps 724 mmHg 61%
    21:00 +13°C° 0.1 mm 2 mps 725 mmHg 64%
    22:00 +12°C° 0.1 mm 3 mps 725 mmHg 66%
    23:00 +12°C° 0 mm 3 mps 725 mmHg 68%

    Tomorrow, 23 September, Sunday

    Time Temperature Precipitation Wind Pressure Humidity
    00:00 +12°C° 0 mm 2 mps 724 mmHg 69%
    01:00 +12°C° 0 mm 2 mps 724 mmHg 71%
    02:00 +12°C° 0 mm 2 mps 724 mmHg 71%
    03:00 +12°C° 0 mm 2 mps 724 mmHg 72%
    04:00 +10°C° 0 mm 2 mps 723 mmHg 73%
    05:00 +10°C° 0.1 mm 2 mps 723 mmHg 75%
    06:00 +10°C° 0.1 mm 2 mps 723 mmHg 78%
    07:00 +10°C° 0.1 mm 2 mps 723 mmHg 80%
    08:00 +12°C° 0.2 mm 2 mps 723 mmHg 81%
    09:00 +11°C° 0.2 mm 3 mps 723 mmHg 81%
    10:00 +11°C° 0.2 mm 3 mps 723 mmHg 81%
    11:00 +11°C° 0.2 mm 4 mps 722 mmHg 82%
    12:00 +12°C° 0.2 mm 4 mps 722 mmHg 83%
    13:00 +12°C° 0.2 mm 5 mps 721 mmHg 84%
    14:00 +12°C° 0.5 mm 5 mps 720 mmHg 84%
    15:00 +12°C° 0.5 mm 5 mps 719 mmHg 84%
    16:00 +12°C° 0.5 mm 5 mps 718 mmHg 85%
    17:00 +13°C° 0.1 mm 5 mps 717 mmHg 84%
    18:00 +13°C° 0.1 mm 5 mps 716 mmHg 83%
    19:00 +13°C° 0.1 mm 6 mps 715 mmHg 83%
    20:00 +14°C° 0.7 mm 6 mps 715 mmHg 85%
    21:00 +15°C° 0.7 mm 6 mps 715 mmHg 87%
    22:00 +15°C° 0.7 mm 7 mps 714 mmHg 89%
    23:00 +15°C° 2.1 mm 6 mps 715 mmHg 89%

    Day after tomorrow, 24 September, Monday

    Time Temperature Precipitation Wind Pressure Humidity
    00:00 +14°C° 2.1 mm 6 mps 715 mmHg 89%
    01:00 +13°C° 2.1 mm 6 mps 715 mmHg 89%
    02:00 +11°C° 0.5 mm 7 mps 717 mmHg 87%
    03:00 +9°C° 0.5 mm 7 mps 719 mmHg 85%
    04:00 +7°C° 0.5 mm 8 mps 721 mmHg 84%
    05:00 +7°C° 0 mm 8 mps 722 mmHg 83%
    06:00 +6°C° 0 mm 8 mps 722 mmHg 82%
    07:00 +6°C° 0 mm 8 mps 723 mmHg 81%
    08:00 +7°C° 0 mm 8 mps 724 mmHg 77%
    09:00 +7°C° 0 mm 9 mps 725 mmHg 72%
    10:00 +8°C° 0 mm 9 mps 726 mmHg 67%
    11:00 +8°C° 0 mm 9 mps 726 mmHg 61%
    12:00 +10°C° 0 mm 9 mps 727 mmHg 55%
    13:00 +11°C° 0 mm 9 mps 727 mmHg 50%
    14:00 +11°C° 0 mm 9 mps 728 mmHg 50%
    15:00 +10°C° 0 mm 8 mps 728 mmHg 49%
    16:00 +10°C° 0 mm 8 mps 728 mmHg 49%
    17:00 +9°C° 0 mm 7 mps 728 mmHg 54%
    18:00 +8°C° 0 mm 6 mps 729 mmHg 59%
    19:00 +6°C° 0 mm 5 mps 729 mmHg 64%
    20:00 +6°C° 0 mm 5 mps 730 mmHg 66%
    21:00 +5°C° 0 mm 5 mps 730 mmHg 69%
    22:00 +5°C° 0 mm 5 mps 730 mmHg 72%
    23:00 +5°C° 0 mm 5 mps 731 mmHg 72%

    25 September, Tuesday

    Time Temperature Precipitation Wind Pressure Humidity
    00:00 +3°C° 0 mm 5 mps 731 mmHg 72%
    01:00 +3°C° 0 mm 5 mps 731 mmHg 73%
    02:00 +3°C° 0 mm 5 mps 732 mmHg 73%
    03:00 +2°C° 0 mm 5 mps 732 mmHg 74%
    04:00 +2°C° 0 mm 5 mps 732 mmHg 75%
    05:00 +3°C° 0 mm 4 mps 733 mmHg 75%
    06:00 +3°C° 0 mm 4 mps 734 mmHg 76%
    07:00 +3°C° 0 mm 4 mps 734 mmHg 76%
    08:00 +5°C° 0 mm 4 mps 735 mmHg 70%
    09:00 +6°C° 0 mm 4 mps 735 mmHg 64%
    10:00 +8°C° 0 mm 4 mps 736 mmHg 58%
    11:00 +10°C° 0 mm 4 mps 736 mmHg 55%
    12:00 +10°C° 0 mm 4 mps 736 mmHg 52%
    13:00 +11°C° 0 mm 4 mps 736 mmHg 50%
    14:00 +11°C° 0 mm 4 mps 736 mmHg 50%
    15:00 +11°C° 0 mm 4 mps 736 mmHg 50%
    16:00 +10°C° 0 mm 3 mps 736 mmHg 50%
    17:00 +9°C° 0 mm 3 mps 736 mmHg 55%
    18:00 +7°C° 0 mm 2 mps 736 mmHg 61%
    19:00 +6°C° 0 mm 2 mps 737 mmHg 66%
    20:00 +6°C° 0 mm 1 mps 737 mmHg 67%
    21:00 +5°C° 0 mm 1 mps 737 mmHg 69%
    22:00 +5°C° 0 mm 1 mps 737 mmHg 70%
    23:00 +5°C° 0 mm 1 mps 737 mmHg 70%

    26 September, Wednesday

    Time Temperature Precipitation Wind Pressure Humidity
    00:00 +4°C° 0 mm 1 mps 737 mmHg 71%
    01:00 +4°C° 0 mm 1 mps 737 mmHg 72%
    02:00 +4°C° 0 mm 1 mps 737 mmHg 72%
    03:00 +4°C° 0 mm 1 mps 737 mmHg 72%
    04:00 +3°C° 0 mm 1 mps 736 mmHg 73%
    05:00 +4°C° 0 mm 1 mps 736 mmHg 72%
    06:00 +4°C° 0 mm 1 mps 736 mmHg 70%
    07:00 +5°C° 0 mm 1 mps 736 mmHg 69%
    08:00 +6°C° 0 mm 2 mps 736 mmHg 62%
    09:00 +8°C° 0 mm 3 mps 736 mmHg 56%
    10:00 +9°C° 0 mm 5 mps 736 mmHg 50%
    11:00 +10°C° 0 mm 5 mps 735 mmHg 48%
    12:00 +12°C° 0 mm 5 mps 735 mmHg 46%
    13:00 +13°C° 0 mm 5 mps 734 mmHg 44%
    14:00 +13°C° 0 mm 5 mps 734 mmHg 45%
    15:00 +13°C° 0 mm 4 mps 733 mmHg 46%
    16:00 +13°C° 0 mm 4 mps 733 mmHg 47%
    17:00 +11°C° 0 mm 3 mps 733 mmHg 51%
    18:00 +9°C° 0 mm 3 mps 732 mmHg 55%
    19:00 +7°C° 0 mm 2 mps 732 mmHg 59%
    20:00 +7°C° 0 mm 2 mps 732 mmHg 59%
    21:00 +7°C° 0 mm 2 mps 732 mmHg 60%
    22:00 +7°C° 0 mm 1 mps 732 mmHg 60%
    23:00 +7°C° 0 mm 1 mps 732 mmHg 61%

    27 September, Thursday

    Time Temperature Precipitation Wind Pressure Humidity
    00:00 +6°C° 0 mm 1 mps 731 mmHg 62%
    01:00 +6°C° 0 mm 1 mps 731 mmHg 63%
    02:00 +6°C° 0 mm 1 mps 731 mmHg 65%
    03:00 +6°C° 0 mm 1 mps 731 mmHg 66%
    04:00 +6°C° 0 mm 1 mps 730 mmHg 68%
    05:00 +6°C° 0 mm 1 mps 730 mmHg 69%
    06:00 +7°C° 0 mm 1 mps 730 mmHg 69%
    07:00 +7°C° 0 mm 1 mps 730 mmHg 70%
    08:00 +8°C° 0 mm 2 mps 730 mmHg 64%
    09:00 +12°C° 0 mm 2 mps 730 mmHg 58%
    10:00 +13°C° 0 mm 3 mps 730 mmHg 52%
    11:00 +16°C° 0 mm 3 mps 730 mmHg 49%
    12:00 +17°C° 0 mm 3 mps 730 mmHg 45%
    13:00 +18°C° 0 mm 3 mps 729 mmHg 41%
    14:00 +18°C° 0 mm 3 mps 729 mmHg 44%
    15:00 +18°C° 0 mm 3 mps 728 mmHg 46%
    16:00 +18°C° 0 mm 2 mps 728 mmHg 48%
    17:00 +16°C° 0 mm 2 mps 728 mmHg 53%
    18:00 +14°C° 0 mm 2 mps 727 mmHg 59%
    19:00 +12°C° 0 mm 2 mps 727 mmHg 64%
    20:00 +12°C° 0 mm 2 mps 727 mmHg 65%
    21:00 +10°C° 0 mm 2 mps 727 mmHg 66%
    22:00 +10°C° 0 mm 2 mps 727 mmHg 67%
    23:00 +10°C° 0 mm 2 mps 727 mmHg 69%
    Show more